#timestamp,LO_Frequency,Hit 
1503291615.2,286046998.2,N
1503291635.0,286047000.7,N
1503291635.9,286047000.7,N
1503291655.7,286046999.5,N
1503291675.6,286046995.9,N
1503291695.4,286046991.8,N
1503291715.2,286046991.0,N
1503291735.1,286046989.3,N
1503291736.0,286046989.3,N
1503291755.8,286046990.0,N
1503291775.6,286046989.3,N
1503291795.5,286046988.1,N
1503291815.3,286046987.7,N
1503291835.1,286046987.3,N
1503291855.9,286046989.4,N
1503291875.7,286046990.1,N
1503291895.5,286046987.7,N
1503291915.4,286046986.5,N
1503291935.2,286046986.0,N
1503291955.0,286046987.4,N
1503291955.9,286046987.4,N
1503291975.8,286046993.1,N
1503291995.6,286046991.2,N
1503292015.4,286046988.9,N
1503292035.2,286046990.2,N
1503292055.1,286046990.0,N
1503292056.0,286046990.0,N
1503292075.8,286046991.5,N
1503292095.6,286046996.1,N
1503292115.5,286046992.2,N
1503292135.3,286046991.9,N
1503292155.1,286046991.5,N
1503292175.9,286046988.8,P
1503292195.7,286046997.8,N
1503292215.5,286046997.2,N
1503292235.4,286046995.5,N
1503292255.2,286046991.9,N
1503292275.0,286046994.6,N
1503292275.9,286046994.6,N
1503292295.8,286046992.6,N
1503292315.6,286046994.1,N
1503292335.4,286046996.4,N
1503292355.3,286046997.9,N
1503292375.1,286046993.6,N
1503292376.0,286046993.6,N
1503292395.8,286046993.3,N
1503292415.7,286046994.6,N
1503292435.5,286046992.5,P
1503292455.3,286046998.8,N
1503292475.2,286046997.1,N
1503292495.9,286047000.0,N
1503292515.7,286046999.8,N
1503292535.8,286046997.3,N
1503292555.6,286046997.7,N
1503292575.4,286046997.8,N
1503292595.3,286047001.0,N
1503292615.1,286046999.9,N
1503292635.8,286046999.5,N
1503292655.7,286046995.0,N
1503292675.5,286046995.6,N
1503292695.3,286046996.0,N
1503292715.2,286046997.1,N
1503292735.9,286046997.6,N
1503292755.7,286046996.1,N
1503292775.6,286046995.1,N
1503292795.4,286046993.9,N
1503292815.2,286046994.1,N
1503292835.0,286046993.9,N
1503292836.0,286046993.9,N
1503292855.8,286046995.4,N
1503292875.6,286046993.3,N
1503292895.4,286046993.4,N
1503292915.3,286046996.9,N
1503292935.1,286046997.3,N
1503292955.8,286046995.3,N
1503292975.7,286046993.3,N
1503292995.5,286046992.2,P
1503293015.3,286046998.4,N
1503293035.2,286047001.1,N
1503293055.0,286046999.1,N
1503293055.9,286046999.1,N
1503293075.7,286046997.1,N
1503293095.6,286046997.5,N
1503293115.4,286046998.2,N
1503293135.2,286046997.0,N
1503293155.1,286046996.4,N
1503293156.0,286046996.4,N
1503293175.8,286046995.1,N
1503293195.6,286046996.8,N
1503293215.5,286046999.1,N
1503293235.3,286046996.8,N
1503293255.1,286046997.0,N
1503293275.8,286047001.0,N
1503293295.7,286046996.6,N
1503293315.5,286046997.6,N
1503293335.3,286046996.6,N
1503293355.2,286046994.9,N
1503293375.0,286046994.9,N
1503293375.9,286046994.9,N
1503293395.8,286046993.4,P
1503293415.6,286046995.6,N
1503293435.4,286046996.1,N
1503293455.2,286046996.1,N
1503293475.1,286046996.2,P
1503293476.0,286046996.2,P
1503293495.8,286047000.5,N
1503293515.7,286047000.2,N
1503293535.5,286046999.8,N
1503293555.3,286047000.9,N
1503293575.1,286046998.7,N
1503293595.9,286046999.4,N
1503293615.7,286046999.9,N
1503293635.5,286047001.0,N
1503293655.4,286047000.5,N
1503293675.2,286046998.2,N
1503293695.0,286047001.2,N
1503293695.9,286047001.2,N
1503293715.8,286047000.4,N
1503293735.6,286047000.8,N
1503293755.4,286046998.7,N
1503293775.3,286047001.1,N
1503293795.1,286047002.2,N
1503293796.0,286047002.2,N
1503293815.8,286047002.2,N
1503293835.6,286047003.3,N
1503293855.5,286047000.3,N
1503293875.3,286046999.7,N
1503293895.1,286047001.0,N
1503293915.9,286047002.6,N
1503293935.7,286047004.4,N
1503293955.5,286047001.3,N
1503293975.4,286047002.1,N
1503293995.2,286047004.4,N
1503294015.0,286047000.3,N
1503294015.9,286047000.3,N
1503294035.8,286047001.0,N
1503294055.6,286047000.1,N
1503294075.4,286047004.0,N
1503294095.3,286046998.7,N
1503294115.1,286046999.3,N
1503294116.0,286046999.3,N
1503294135.8,286046999.0,N
1503294155.7,286046994.9,P
1503294175.5,286046997.4,N
1503294195.3,286046995.0,N
1503294215.2,286046999.3,N
1503294235.9,286046997.2,N
1503294255.7,286046997.2,N
1503294275.6,286046996.2,N
1503294295.4,286046995.9,N
1503294315.2,286046997.6,N
1503294335.0,286046997.3,N
1503294335.9,286046997.3,N
1503294355.8,286046995.0,P
1503294375.6,286046998.9,N
1503294395.5,286046998.8,N
1503294415.3,286046999.5,N
1503294435.1,286047002.4,N
1503294455.8,286047001.8,N
1503294475.7,286047004.2,N
1503294495.5,286047006.0,N
1503294515.3,286047003.1,N
1503294535.2,286047003.3,N
1503294555.9,286047005.8,N
1503294575.7,286047005.7,N
1503294595.6,286047003.4,N
1503294615.4,286047003.2,N
1503294635.2,286047004.4,N
1503294655.0,286047005.5,N
1503294656.0,286047005.5,N
1503294675.8,286047004.4,N
1503294695.6,286047000.0,N
1503294715.4,286047001.0,N
1503294735.3,286047000.9,N
1503294755.1,286047001.7,N
1503294775.8,286047002.6,N
1503294795.7,286047001.9,N
1503294815.5,286047001.7,N
1503294835.3,286047003.6,N
1503294855.2,286047004.3,N
1503294875.9,286047001.4,N
1503294895.7,286047003.6,N
1503294915.6,286047001.9,N
1503294935.4,286047003.7,N
1503294955.2,286047001.8,N
1503294975.0,286047001.3,N
1503294976.0,286047001.3,N
1503294995.8,286047002.8,N
1503295015.6,286047001.3,N
1503295035.4,286047003.6,N
1503295055.3,286047002.3,N
1503295075.1,286046998.6,N
1503295095.8,286046998.8,N
1503295115.7,286047000.9,N
1503295135.5,286047000.2,N
1503295155.3,286047002.4,N
1503295175.2,286047002.6,N
1503295195.9,286047000.4,N
